{"data":{"norad_id":59938,"intl_designator":"2024-106S","name":"STARLINK-31876","alt_names":[],"object_type":"PAYLOAD","status":"ACTIVE","operator":null,"country":"US","launch_date":"2024-06-01","launch_site_code":"AFETR","launch_vehicle":null,"mission":null,"orbit_class":"UNKNOWN","rcs_meters":null,"size_class":null,"mass_kg":null,"dimensions":null,"purposes":["comms"],"wikipedia_slug":null,"has_3d_model":false,"image_url":null,"decayed_at":null,"tle_current":{"epoch":"2026-09-21T10:56:07.931040Z","epoch_age_seconds":91937,"freshness":"FRESH","line1":"1 59938U 24106S   26264.45564735  .00000951  00000+0  44086-4 0  9996","line2":"2 59938  43.0032 306.8566 0001611 257.5505 102.5166 15.27571227130475","mean_motion":15.27571227,"eccentricity":0.0001611,"inclination_deg":43.0032,"raan_deg":306.8566,"arg_perigee_deg":257.5505,"mean_anomaly_deg":102.5166,"bstar":4.4086e-5,"rev_number":13047,"period_min":94.267290097367,"perigee_km":481.97002437134,"apogee_km":484.18070699556,"semimajor_km":6861.2123656834,"source":"CELESTRAK","updated_at":"2026-09-22T09:00:49.113950Z"}}}